Location: Lane
(33.5226°N, 79.8788°W)
Time: 02:37:39
(UTC+00:00)

Explorer 7 - Pass Details

Date: 04 October 2022
Orbit: 481 x 665 km, 50.3° (Epoch: 30 November)

Event Time Altitude Azimuth Distance (km) Brightness Sun altitude
Rises 12:58:43 0° 180° (S) 2,938 10.8 20.0°
Reaches altitude 10° 13:02:06 10° 155° (SSE) 2,057 10.5 20.7°
Maximum altitude 13:04:28 14° 125° (SE) 1,831 11.4 21.1°
Drops below altitude 10° 13:06:52 10° 95° (E) 2,081 11.4 21.6°
Sets 13:10:19 0° 70° (ENE) 3,000 11.3 22.3°
